RH
9 8 17 19 25 32 42 43 42 40 40 38 38 36 35 33 31 28 24 24 26 30 31 32 33 37 46 47 30 18 15 49 61 58 70 80 80 87 88 97 100 98 100 87
20 14 12 12 20 21 33 48 46 42 33 36 38 35 35 33 31 32 28 26 25 27 34 32 32 36 42 45 28 20 13 27 62 66 72 80 93 92 94 100 100 100 100 97
25 23 17 15 19 23 20 21 27 30 30 32 33 33 34 35 34 32 29 26 25 25 25 24 30 33 38 41 32 20 12 16 52 64 66 72 84 96 99 100 98 100 99 100
29 28 35 36 34 31 26 22 23 27 27 32 34 47 41 39 34 31 31 28 30 30 24 23 27 34 39 38 29 20 13 13 42 66 64 65 74 88 97 100 99 99 100 99
20 42 27 36 40 30 24 22 23 24 24 24 31 37 42 46 40 32 29 29 29 30 27 25 24 36 43 35 33 20 15 11 43 64 67 68 78 90 99 100 100 100 100 99
23 34 46 45 42 38 37 34 29 26 26 44 40 45 44 44 33 30 30 29 28 30 28 29 26 38 33 31 33 20 17 11 38 60 69 70 76 76 86 99 100 100 100 100
24 22 24 37 38 36 34 33 42 47 55 56 37 39 37 34 35 41 44 31 34 34 26 24 26 28 28 34 31 21 19 12 26 52 64 71 72 82 89 96 98 99 98 100
39 34 23 26 37 36 34 31 42 53 75 56 39 48 43 56 53 46 42 36 37 30 22 22 24 28 32 40 27 22 21 14 13 39 58 67 72 78 85 98 99 98 100 100
47 41 32 29 20 34 31 33 33 32 42 58 50 50 47 43 47 47 45 42 38 35 29 28 29 32 38 36 29 23 22 20 14 14 24 41 54 71 77 82 88 98 97 100
54 51 43 38 33 28 29 28 38 36 49 56 52 44 42 45 52 56 49 46 44 38 31 31 35 37 42 30 32 25 23 23 19 18 19 19 23 38 60 76 84 88 92 98
59 59 53 45 45 43 33 31 38 35 38 47 61 45 36 39 47 80 70 57 53 64 60 43 34 36 39 34 33 28 25 24 24 23 24 24 25 26 28 42 77 88 78 100
88 65 60 50 49 56 31 29 37 42 53 52 48 50 47 60 58 67 83 71 53 52 63 51 46 40 46 34 32 26 25 27 30 26 26 28 28 29 29 30 40 64 77 88
94 88 60 54 57 55 46 54 42 39 43 55 56 45 65 62 74 79 67 89 90 71 52 60 61 58 54 48 36 32 34 35 36 35 35 33 29 30 33 36 36 36 37 45
85 69 53 60 77 68 55 48 55 58 50 51 50 36 63 74 74 89 76 75 98 75 70 46 67 61 59 61 58 43 40 42 41 41 38 39 41 43 33 35 37 40 41 40
71 68 74 40 37 41 48 42 50 36 74 68 55 51 49 49 66 75 69 71 80 98 80 56 53 75 62 57 57 60 61 53 56 47 45 45 46 48 50 36 36 39 41 42
61 66 62 54 39 31 27 30 49 38 38 65 41 33 33 37 52 50 62 72 78 93 88 74 62 61 73 70 62 63 64 60 55 53 54 50 50 52 53 55 48 33 35 39
60 60 56 59 50 34 21 47 41 34 34 39 68 41 42 45 47 49 63 58 63 64 69 72 72 74 72 51 61 60 61 64 67 64 54 47 50 52 56 59 60 60 51 37
76 80 67 60 49 74 34 30 44 52 65 41 41 48 64 52 46 39 63 52 55 52 49 49 55 53 58 56 56 48 62 66 67 56 56 57 48 44 41 53 54 62 62 58
46 87 74 64 72 51 33 48 59 71 85 84 73 84 82 90 91 87 78 73 66 60 55 49 40 42 45 52 64 65 60 68 65 66 56 57 53 51 39 36 43 42 51 61
44 65 76 81 81 87 56 60 61 70 81 92 85 80 63 70 74 71 69 66 63 60 56 47 40 40 36 39 41 62 65 64 57 67 67 60 60 61 55 50 48 44 44 49
54 56 78 82 84 66 46 68 61 60 76 85 78 71 69 64 61 60 58 54 46 46 44 41 37 38 41 41 32 40 55 61 58 56 59 62 60 68 67 70 70 66 56 53
83 67 76 86 82 76 74 54 60 77 68 63 61 56 47 42 53 53 44 37 34 36 33 31 36 31 26 26 26 29 36 39 54 60 62 64 68 89 89 84 91 97 86 79
96 62 64 66 66 50 73 83 85 79 78 73 66 64 61 58 52 37 28 29 30 36 42 45 56 55 47 39 37 32 27 30 33 36 56 59 61 70 80 86 90 98 98 99
97 77 90 71 56 61 67 72 81 96 80 77 75 73 68 62 43 37 35 38 50 56 56 57 69 58 57 54 51 50 45 31 31 43 49 53 54 55 59 64 72 74 85 92
97 92 85 89 82 83 70 85 89 96 93 89 80 71 61 54 42 39 38 39 50 66 66 68 61 56 58 53 51 56 55 56 50 56 65 66 64 66 69 73 70 65 80 85
97 97 96 97 95 83 88 94 100 92 93 88 73 58 65 61 46 34 33 39 55 76 74 63 55 49 48 50 59 81 89 94 85 76 71 72 80 95 100 99 99 100 99 100
Wind_Speed
21 34 44 39 37 39 40 35 38 37 29 25 28 33 32 26 23 18 24 27 22 29 30 29 26 27 20 17 23 22 19 13 9 8 9 10 12 17 14 20 40 47 43 48
25 39 34 32 31 33 37 41 47 40 32 30 34 41 36 34 30 22 20 24 26 22 34 34 30 28 19 17 21 21 17 14 14 10 10 10 13 20 18 28 42 43 41 50
33 27 22 30 30 32 35 36 36 33 21 25 28 40 35 38 39 29 22 23 30 33 32 31 35 28 20 16 20 20 17 13 14 12 12 11 12 19 24 29 29 51 36 43
32 34 32 20 27 27 34 27 33 32 29 24 19 23 31 36 37 38 26 29 28 27 34 35 27 28 21 17 20 18 17 12 12 14 11 12 12 18 32 32 30 40 39 46
43 14 28 36 36 23 32 18 25 29 33 27 24 18 18 12 27 35 31 27 22 24 25 34 28 25 22 17 17 15 15 11 9 11 8 7 8 14 25 36 37 38 35 38
40 28 20 21 27 29 27 28 32 30 32 18 14 15 22 12 20 26 32 30 31 25 33 29 26 27 19 21 17 12 13 9 6 12 8 6 6 9 18 24 35 37 38 41
40 45 42 32 27 27 25 19 8 7 5 6 12 14 35 27 29 30 24 27 26 29 32 27 28 25 19 21 16 10 10 5 3 11 11 9 11 12 14 19 22 36 36 38
19 16 37 37 44 34 35 31 16 8 5 5 20 8 7 9 13 19 17 24 24 18 23 28 28 23 19 19 15 10 7 3 2 7 12 10 11 12 14 24 17 23 26 37
9 13 10 14 37 39 40 26 25 25 13 3 6 9 14 20 12 7 1 17 17 17 17 20 20 23 18 17 16 12 10 6 5 6 9 10 10 10 8 15 20 27 27 31
21 24 17 14 14 29 39 29 19 16 8 6 6 12 14 15 9 1 12 7 10 23 16 15 13 16 17 18 17 15 12 9 8 7 6 7 7 8 8 13 16 20 27 23
13 20 18 14 16 26 29 37 16 20 15 10 1 6 14 18 12 7 1 10 8 6 25 25 9 10 13 20 18 15 13 10 7 8 8 6 6 5 5 7 13 17 22 22
4 8 14 19 7 4 23 28 30 13 4 4 3 11 15 7 4 23 12 7 11 17 8 34 24 8 8 20 18 14 13 10 9 9 7 8 8 9 9 9 10 15 22 26
12 3 7 11 8 5 12 8 17 22 20 16 4 5 6 7 6 8 18 18 9 15 14 20 32 27 15 13 20 17 14 12 11 10 9 8 7 8 10 10 11 11 13 15
12 10 10 6 5 3 4 2 5 7 7 9 24 23 10 4 13 11 2 8 14 11 18 16 19 32 27 21 15 17 16 16 15 13 11 9 7 7 10 12 13 13 13 14
12 6 11 3 2 0 3 7 3 7 2 4 6 6 4 3 4 8 4 9 11 15 13 12 8 23 28 26 23 20 16 14 13 21 17 14 13 14 13 15 15 16 17 18
1 7 11 5 5 3 12 11 11 11 12 7 8 6 4 1 8 7 5 5 10 12 10 4 9 8 19 21 21 21 21 18 15 14 20 24 21 19 19 19 19 20 20 21
5 9 11 2 8 8 9 7 5 7 12 12 14 10 4 4 9 6 8 15 15 7 11 15 2 7 2 9 20 21 21 19 15 16 18 21 26 24 23 23 23 23 24 24
9 6 7 8 11 1 2 5 5 4 5 8 10 10 5 10 11 12 14 16 17 16 17 17 20 11 11 11 15 20 23 25 24 21 17 17 23 24 25 27 27 27 28 29
19 8 5 4 2 10 6 1 6 3 8 7 8 8 9 4 5 10 12 12 16 17 19 23 25 27 24 16 15 16 19 21 27 27 24 18 18 23 26 27 29 30 30 32
24 20 11 3 2 3 5 6 7 6 6 5 3 5 10 12 9 10 13 15 18 22 23 23 29 32 35 35 30 22 19 22 25 25 34 31 24 21 23 25 28 32 32 33
23 28 25 19 6 8 16 4 5 4 3 1 4 6 8 9 11 15 20 20 21 22 25 30 33 33 31 32 41 36 31 26 25 29 30 31 31 28 24 20 27 31 34 35
18 20 24 20 11 11 1 5 3 3 2 0 4 8 9 10 11 15 18 20 21 22 21 23 26 28 30 32 34 37 42 40 35 29 28 29 32 29 36 31 25 23 26 34
12 21 24 18 16 8 5 5 11 12 6 5 5 10 12 14 18 20 17 17 21 20 22 24 24 25 29 31 33 34 39 39 42 42 38 34 34 32 32 27 28 27 29 30
5 21 11 15 15 13 8 9 7 5 3 6 8 11 13 16 18 18 16 17 20 18 22 24 24 26 29 31 31 31 31 38 39 39 40 40 36 37 38 32 29 27 30 34
10 19 20 15 11 11 16 11 10 9 8 7 10 13 16 13 15 15 16 16 16 15 18 19 21 26 29 35 36 31 28 29 34 35 35 35 36 37 37 37 35 34 35 33
12 15 7 6 12 15 17 19 8 13 9 9 10 14 14 14 17 14 15 15 16 16 17 19 18 24 30 35 34 24 22 26 28 28 30 32 33 35 34 33 36 34 34 43
Wind_Direction
226 224 228 230 235 244 246 248 256 258 263 260 255 264 271 265 262 263 245 258 256 258 261 260 265 266 274 293 307 310 312 296 263 239 239 225 226 219 219 219 200 182 186 180
229 236 235 240 239 243 246 249 255 264 266 259 265 268 275 265 263 267 256 254 253 253 253 258 261 260 269 284 305 306 305 292 270 250 247 249 243 220 211 218 197 198 195 183
237 244 246 238 238 240 243 243 252 256 264 270 278 275 276 261 259 251 251 248 250 265 255 262 256 256 259 280 301 299 298 292 262 251 254 249 243 213 202 201 195 198 191 191
244 245 238 233 239 238 244 242 250 256 259 259 270 279 273 278 268 244 249 245 255 266 258 261 252 248 251 270 291 292 295 293 264 249 255 268 272 218 199 188 201 196 203 199
234 249 236 230 232 235 246 246 251 255 254 265 259 273 299 279 283 253 240 241 256 285 279 259 258 239 241 270 281 282 289 292 269 228 241 261 269 211 200 201 203 197 223 210
234 218 221 240 242 240 257 262 259 264 254 249 235 225 279 271 290 287 250 249 249 274 266 256 234 230 248 264 270 270 283 291 273 212 183 180 186 182 187 202 213 215 214 223
237 237 233 231 235 220 228 232 235 232 218 240 236 254 260 284 295 291 283 229 238 286 258 226 219 234 254 257 257 257 271 281 265 211 195 182 171 181 181 190 202 214 223 215
229 260 242 228 229 233 227 227 212 210 189 244 250 240 262 303 318 308 269 216 249 285 214 218 227 239 246 250 240 237 236 230 166 186 195 201 198 191 193 196 207 215 221 233
227 243 242 241 233 225 230 235 244 232 223 174 213 239 274 278 276 65 339 218 245 245 223 219 231 230 237 240 229 223 213 200 164 163 172 190 193 192 203 197 196 200 202 220
246 256 245 257 238 229 229 227 222 217 197 236 222 257 257 287 270 29 64 31 262 217 215 199 216 229 231 224 219 222 215 198 181 164 166 170 177 186 192 195 200 198 194 213
216 236 246 249 240 238 216 221 225 222 216 220 151 258 277 260 283 258 230 60 93 5 224 197 218 205 216 217 218 217 215 206 191 179 166 174 171 175 171 189 198 193 196 197
205 242 236 238 216 262 209 213 221 213 179 183 207 268 276 237 280 277 250 159 70 11 228 210 201 206 226 215 211 202 198 196 201 198 188 178 182 171 169 171 185 200 202 197
346 55 250 208 257 195 130 169 211 213 214 204 170 224 176 170 197 198 228 219 320 357 356 226 221 214 211 220 212 205 201 195 198 202 194 198 197 191 180 174 172 176 180 189
344 307 25 57 196 248 38 69 145 234 209 222 222 239 211 278 278 300 302 297 243 3 358 353 240 214 209 203 207 224 223 224 220 212 203 195 194 201 210 204 193 186 188 191
332 305 353 341 99 129 303 327 315 332 205 120 156 240 229 359 329 246 344 333 298 256 304 340 358 240 216 209 207 212 230 239 231 229 226 222 222 220 222 225 223 215 209 206
10 294 332 10 4 244 261 278 288 305 279 242 281 305 136 92 239 311 240 282 273 286 299 290 340 45 206 241 230 223 230 235 249 248 236 231 235 236 234 232 230 232 229 224
279 300 326 344 360 329 288 57 13 287 264 243 255 306 347 204 221 253 239 233 229 220 255 261 320 252 312 240 241 239 235 231 235 247 255 236 231 237 239 237 236 234 236 236
249 235 281 303 334 245 294 292 343 132 126 179 190 215 229 217 223 230 236 251 261 258 258 252 261 263 241 262 266 253 240 248 247 246 244 248 233 233 232 231 235 234 233 235
242 223 227 267 289 300 301 160 119 264 106 136 173 162 150 161 188 215 242 263 268 273 266 268 268 270 271 259 242 252 241 244 243 245 251 245 245 244 237 234 234 237 238 240
235 235 230 229 247 242 169 158 193 178 170 145 214 244 226 230 253 288 289 292 289 287 281 276 276 277 273 273 269 254 240 241 250 246 242 244 245 249 247 247 244 242 240 242
216 219 220 222 230 269 245 200 200 195 184 203 277 288 307 310 300 296 298 299 300 298 294 288 287 282 279 278 266 262 258 260 250 251 254 253 249 253 256 260 256 265 251 247
222 201 213 219 222 254 37 210 221 124 104 337 331 322 324 323 310 312 308 304 293 291 289 291 297 286 281 280 275 268 264 263 262 258 253 256 257 253 245 251 272 264 274 259
197 202 198 207 222 170 194 171 203 186 204 232 285 305 309 318 321 322 315 302 307 304 307 307 307 307 298 292 288 274 262 264 264 262 264 259 258 262 264 262 261 265 260 266
345 180 194 206 224 212 210 245 258 184 238 206 250 275 304 314 316 319 314 312 318 298 311 304 313 316 319 315 301 283 270 260 262 259 257 260 259 259 261 259 259 265 271 268
2 197 206 212 204 207 219 227 204 219 208 226 263 293 306 311 324 327 327 321 313 304 319 308 310 327 324 323 312 292 268 259 252 252 253 251 251 252 246 244 247 253 256 270
23 28 204 198 226 227 224 219 189 229 226 256 274 292 307 304 319 318 329 328 319 303 301 321 320 333 329 321 312 285 248 239 241 245 251 254 256 244 243 248 251 247 246 251